TITAN 3C TRANSTAGE R/B, 3292

Orbit data source: Space-Track

TITAN 3C TRANSTAGE R/B, 3292 is space debris in GEO originally from a launch on Thu, 13 Jun 1968 UTC launched from the Air Force Eastern Test Range (AFETR). Debris objects in space refer to the collection of defunct objects orbiting the Earth. Examples of debris include non-operational satellites, rocket bodies, and fragments generated from explosions, collisions, or faulty payload assembly.

Not visible in the next 10 days
Identifier
3292, 1968-050J
Orbit
GEO
Last TLE update
2 days ago
Origin
Manufacturer
Martin Marietta
Mission
Spacecraft
Bus & Motor
TRANSTAGE, Unknown motor
Mass
~1,950 kg wet, ~1,950 kg dry
Launch date (UTC)
1968-06-13 (57 years ago)
Launch vehicle
Unknown
Launch site
Air Force Eastern Test Range (AFETR)
Object type
Payload
Rocket body
Debris
Shape & HBR
Cyl + 2 Nozzle, 4.6 m
Radar Cross Section
14.974 m², Large (>1 m²)

Expand to show TLE details & history

TLE from 2 days ago
0 TITAN 3C TRANSTAGE R/B
1 03292U 68050J   25118.90094532 -.00000112  00000-0  00000-0 0  9999
2 03292   6.7542  56.5440 0174346 356.3346 260.5315  1.05593925 42121
Epoch: 2025-04-28T21:37Z
Definitive object data (Epoch: 2025-04-28T21:37:21.675Z)
Latitude
-6.51447°
Longitude
129.89141°
Altitude
34,486.139 km
Speed
3.118 km/s
True Right ascension
20h 45m 21s
True Declination
-6° 30' 28"
Sunlit
Object was in daylight at TLE epoch
Visualization TLE readout
Latitude
-5.06431°
Longitude
-173.49842°
Altitude
33,848.099 km
Speed
3.168 km/s
Apparent Right ascension
00h 03m 43s
Apparent Declination
-10° 47' 52"
Sunlit
Object is in daylight
Visualization observer readout
Local Sidereal Time
06:11:54
Azimuth
262.961° W
Elevation
-8.458°
Doppler factor
1
Orbital elements
Apogee altitude
35,068.944 km
Perigee altitude
33,648.482 km
Semi-major axis
40,736.85 km
Eccentricity
0.0174346
Inclination
6.7542°
RAAN
56.544°
Arg. of periapsis
356.3346°
True anomaly
258.56829°
Mean anomaly
260.5315°
Eccentric anomaly
259.54914°
Mean motion
0.26397 °/min
BSTAR
Unknown
Orbital period
1363.77 mins
Loading historical data...
3292 neighbors
Loading maneuver chart data...
Loading SW <> Apogee altitude chart data...
Loading historical data...
Loading historical data...
Loading historical data...
Loading historical data...
Loading historical data...
Loading historical data...
Loading historical data...

TITAN 3C TRANSTAGE R/B Visibility forecast

Observer location: undefined°, undefined°

TITAN 3C TRANSTAGE R/B is not visible in the next 10 days
Span
Click to sort rows by Start time (UTC) header in descending order
Start Az.
Max El. time (UTC)
Max El. Az.
Max El.
End time (UTC)
End Az.
|